AirNav   Pilot Hours Calculator
 
 1130 users online  

PS01 Sterling Heliport
Croydon, Pennsylvania, USA

GOING TO CROYDON?


FAA INFORMATION EFFECTIVE 22 APRIL 2021

Location

FAA Identifier: PS01
Lat/Long: 40-04-52.6000N 074-53-39.2000W
40-04.876667N 074-53.653333W
40.0812778,-74.8942222
(estimated)
Elevation: 24 ft. / 7 m (estimated)
From city: 1 mile SE of CROYDON, PA
Time zone: UTC -4 (UTC -5 during Standard Time)
Zip code: 19021

Heliport Operations

Heliport use: Private use. Permission required prior to landing
Activation date: 10/2006
Control tower: no
ARTCC: NEW YORK CENTER
FSS: WILLIAMSPORT FLIGHT SERVICE STATION
Attendance: MON-FRI 0800-1700
Wind indicator: yes
Segmented circle: no

Heliport Communications

WX ASOS at PNE (5 nm W): 121.15 (215-677-0146)
WX ASOS at VAY (9 nm S): 119.325 (609-267-1176)
WX ASOS at TTN (12 nm N): 126.775 (609-538-8690)
WX AWOS-3 at LOM (17 nm W): 118.925 (215-646-1068)
WX ASOS at DYL (18 nm NW): 118.875 (215-345-0392)

Nearby radio navigation aids

VOR radial/distance  VOR name  Freq  Var
ARDr187/10.3YARDLEY VOR/DME108.2010W
GXUr299/14.3MC GUIRE VORTAC110.6012W
RBVr258/19.7ROBBINSVILLE VORTAC113.8010W
CYNr317/26.5COYLE VORTAC113.4010W
SBJr203/30.9SOLBERG VOR/DME112.9010W
PTWr114/31.7POTTSTOWN VORTAC116.5009W
OODr045/32.7WOODSTOWN VORTAC112.8010W
VCNr016/32.8CEDAR LAKE VOR/DME115.2010W
COLr259/36.4COLTS NECK VOR/DME115.4011W
MXEr084/37.0MODENA VORTAC113.2009W

 
NDB name  Hdg/Dist  Freq  Var  ID
AMBLER110/18.127512WING .. -. --.
LAKEHURST286/25.839611WNEL -. . .-..

Heliport Services

Airframe service: MAJOR
Powerplant service: MAJOR

Runway Information

Helipad H1

Dimensions: 50 x 50 ft. / 15 x 15 m
Surface: concrete, in good condition
Traffic pattern: leftleft

Heliport Ownership and Management from official FAA records

Ownership: Privately-owned
Owner: STERLING HELICOPTER
1226 RIVER ROAD
CROYDON, PA 19021
Phone 215-271-2510
Manager: PHIL BIDDEN
1226 RIVER ROAD
CROYDON, PA 19021
Phone 215-271-2510

Additional Remarks

CALL PRIOR TO USE FOR PERMISSION, NOISE ABATEMENT PROC & PREF FLT ROUTE.
AVOID OVR FLT OF HOMES & SCHOOL 0.5 NM NE.
FOR CD CTC PHILADELPHIA APCH AT 800-354-9884.

Instrument Procedures

There are no published instrument procedures at PS01.

Some nearby airports with instrument procedures:

KPNE - Northeast Philadelphia Airport (5 nm W)
KVAY - South Jersey Regional Airport (9 nm S)
N14 - Flying W Airport (10 nm SE)
KTTN - Trenton Mercer Airport (12 nm N)
KWRI - McGuire Field (Joint Base Mc Guire Dix Lakehurst) Airport (14 nm E)
N87 - Trenton-Robbinsville Airport (16 nm NE)
KLOM - Wings Field Airport (17 nm W)
19N - Camden County Airport (18 nm S)
KDYL - Doylestown Airport (18 nm NW)
 
Loc | Ops | Rwys | IFR | FBO | Links
Com | Nav | Svcs | Stats | Notes
Area around PS01 (Sterling Heliport)
 
Road maps at: MapQuest Bing Google
 
Aerial photo
No photo
 
Sectional chart

 
Airport distance calculator
Flying to Sterling Heliport? Find the distance to fly.

From to PS01

Sunrise and sunset
Times for 11-May-2021
 Local
(UTC-4)
 Zulu
(UTC)
Morning civil twilight05:1909:19
Sunrise05:4909:49
Sunset20:0300:03
Evening civil twilight20:3300:33

Current date and time
Zulu (UTC)  12-May-2021 01:22:42
Local (UTC-4)  11-May-2021 21:22:42
 
METAR
KPNE 
6nm W 
120054Z 28006KT 10SM SCT065 BKN080 14/03 A3007 RMK AO2 SLP183 T01390033
KVAY 
9nm S 
ASOS 119.325 609-267-1176
120054Z AUTO 00000KT 10SM FEW070 OVC110 14/04 A3006 RMK AO2 SLP177 T01440039
KTTN 
13nm N 
ASOS 133.70 609-538-8690
120053Z 30003KT 10SM FEW070 FEW090 12/03 A3004 RMK AO2 RAB31E43 SLP168 P0000 T01220033
KWRI 
15nm E 
120056Z AUTO 29004KT 10SM FEW110 14/03 A3005 RMK AO2 SLP176 T01370026
KLOM 
17nm W 
120055Z AUTO 28004KT 10SM CLR 14/03 A3007 RMK AO2 T01360031
KDYL 
18nm NW 
120054Z AUTO 34006KT 10SM CLR 13/02 A3006 RMK AO2 SLP178 T01330017
TAF
KPNE 
6nm W 
112047Z 1121/1218 28012G18KT P6SM VCSH BKN110 FM120000 32012G18KT P6SM BKN200 FM120100 32008KT P6SM SKC FM120600 30006KT P6SM SKC FM121300 33012G18KT P6SM SKC
KTTN 
13nm N 
112047Z 1121/1218 28012G20KT P6SM VCSH BKN090 FM120000 33012G18KT P6SM BKN200 FM120100 33008KT P6SM SKC FM120600 30007KT P6SM SKC FM121000 33009KT P6SM SKC FM121300 34012G18KT P6SM SKC
KWRI 
15nm E 
112303Z 1123/1224 28012G18KT 9999 BKN110 QNH3001INS TEMPO 1123/1124 29015G25KT 9000 -SHRA BKN070 BECMG 1200/1201 30008KT 9999 FEW060 SCT250 QNH3004INS BECMG 1212/1213 30010G15KT 9999 FEW070 SCT220 QNH3016INS TX17/1218Z TN05/1210Z
NOTAMs
Click for the latest NOTAMs
NOTAMs are issued by the DoD/FAA and will open in a separate window not controlled by AirNav.

 

 
 

Would you like to see your business listed on this page?

 If your business provides an interesting product or service to pilots, flight crews, aircraft, or users of the Sterling Heliport, you should consider listing it here.  To start the listing process, click on the button below
 
Add a business
 

Other Pages about Sterling Heliport

Update a link
 
Copyright © AirNav, LLC. All rights reserved. Privacy Policy  Contact